Regional Weather Roundup
Issued by NWS

Home | Current Version | Previous Version | Text Only | Print | Product List | Glossary On
Versions: 1 2 3 4 5 6 7 8 9 10 11 12 13 14 15 16 17 18 19 20 21 22 23 24 25 26 27 28 29 30 31 32 33 34 35 36 37 38 39 40 41 42 43 44 45 46 47 48 49 50
000
ASUS43 KTOP 250759
RWRKS

WEATHER ROUNDUP FOR KANSAS
NATIONAL WEATHER SERVICE GOODLAND KS
300 AM CDT FRI JUL 25 2014

NOTE:  "FAIR" INDICATES FEW OR NO CLOUDS BELOW 12,000 FEET WITH NO
SIGNIFICANT WEATHER AND/OR OBSTRUCTIONS TO VISIBILITY.

KSZ001>006-013>018-027>032-041>047-250900-
NORTHWEST KANSAS

CITY           SKY/WX    TMP DP  RH WIND       PRES   REMARKS
GOODLAND       CLOUDY    77  54  44 S10       29.91F
HAYS           PTCLDY    72  64  78 S16G22    29.88S
HILL CITY      CLOUDY    84  63  49 SW15G29   29.85S
RUSSELL        PTCLDY    80  68  66 S22G28    29.86S
$$

KSZ061>065-074>080-084>089-250900-
SOUTHWEST KANSAS

CITY           SKY/WX    TMP DP  RH WIND       PRES   REMARKS
DODGE CITY     CLEAR     78  64  61 S12       29.95F
ELKHART          N/A     77  56  48 S14         N/A
GARDEN CITY    PTCLDY    78  63  59 S16       29.94S
GREAT BEND     CLEAR     79  66  65 S20       29.88F
LIBERAL        CLEAR     79  61  53 S14G22    29.99S
PRATT          CLEAR     73  68  83 S16       29.95S
$$

KSZ066>073-081>083-090>101-250900-
SOUTHEAST KANSAS

CITY           SKY/WX    TMP DP  RH WIND       PRES   REMARKS
CHANUTE        PTCLDY    73  70  90 S8        29.95F
COFFEYVILLE    PTCLDY    74  71  91 S9        29.96F
HUTCHINSON     CLEAR     79  69  71 S15G23    29.91F
MEDICINE LODGE   N/A     77  71  82 S7        29.93F
NEWTON         CLEAR     75  66  73 S12       29.97F
PARSONS        PTCLDY    73  69  87 S7        29.97F
WICHITA INTL   PTCLDY    77  70  79 S9        29.94F
WICHITA JABRA  PTCLDY    76  71  85 S15       29.94F
WINFIELD       CLEAR     75  73  93 SE10      29.97F
$$

KSZ007>012-019>026-033>040-048>060-102>105-250900-
NORTHEAST KANSAS

CITY           SKY/WX    TMP DP  RH WIND       PRES   REMARKS
CONCORDIA      MOCLDY    77  70  79 S14G23    29.86F
EMPORIA        CLOUDY    75  71  87 S20G29    29.91F
LAWRENCE       MOCLDY    72  60  66 S9        29.91F
MANHATTAN      CLOUDY    79  69  71 S16G24    29.86F
OLATHE IND     MOCLDY    72  59  63 S16       29.92F
OLATHE EXE     MOCLDY    71  59  65 S12       29.92F
SALINA         CLEAR     80  70  71 S15G24    29.87F
TOPEKA BILLARD CLOUDY    76  63  64 S10       29.90F
TOPEKA FORBES  CLOUDY    74  63  68 S14       29.90F
$$



USA.gov is the U.S. government's official web portal to all federal, state and local government web resources and services.